PRIVATE WETTERSTATION BILLIGHEIM-ALLFELD                       ZURCK
Wetterdaten: Mittwoch, 08.03.2017
Datum Zeit Temp. A. Temp. A. min Temp. A. max Feuchte A. Luftdruck Regen Wind Richtung Richtung Sonnenschein ET Solar Taupunkt Windchill Windben Empfang
08.03.2017 00:00 3,2 C 3,2 C 3,2 C 92 % 1021,2 hPa 0,0 l/m 0,0 km/h (0 Bft) N 0 0 min 0,000 mm 0 W/m 2,0 C 3,2 C 0,0 km/h (0 Bft) 99 %
08.03.2017 00:10 3,1 C 3,1 C 3,2 C 91 % 1021,6 hPa 0,0 l/m 0,0 km/h (0 Bft) N 0 0 min 0,000 mm 0 W/m 1,8 C 3,1 C 0,0 km/h (0 Bft) 99 %
08.03.2017 00:20 3,0 C 3,0 C 3,1 C 91 % 1021,6 hPa 0,0 l/m 0,0 km/h (0 Bft) N 0 0 min 0,000 mm 0 W/m 1,7 C 3,0 C 0,0 km/h (0 Bft) 100 %
08.03.2017 00:30 3,1 C 3,1 C 3,1 C 91 % 1021,6 hPa 0,0 l/m 0,0 km/h (0 Bft) N 0 0 min 0,000 mm 0 W/m 1,8 C 3,1 C 0,0 km/h (0 Bft) 100 %
08.03.2017 00:40 2,9 C 2,9 C 3,1 C 91 % 1021,7 hPa 0,0 l/m 0,0 km/h (0 Bft) N 0 0 min 0,000 mm 0 W/m 1,6 C 2,9 C 0,0 km/h (0 Bft) 100 %
08.03.2017 00:50 2,9 C 2,9 C 3,0 C 92 % 1021,9 hPa 0,0 l/m 0,0 km/h (0 Bft) N 0 0 min 0,000 mm 0 W/m 1,7 C 2,9 C 0,0 km/h (0 Bft) 89 %
08.03.2017 01:00 2,9 C 2,9 C 2,9 C 92 % 1022,0 hPa 0,0 l/m 0,0 km/h (0 Bft) N 0 0 min 0,000 mm 0 W/m 1,7 C 2,9 C 0,0 km/h (0 Bft) 100 %
08.03.2017 01:10 2,9 C 2,8 C 2,9 C 92 % 1022,1 hPa 0,0 l/m 0,0 km/h (0 Bft) N 0 0 min 0,000 mm 0 W/m 1,7 C 2,9 C 0,0 km/h (0 Bft) 100 %
08.03.2017 01:20 2,9 C 2,8 C 2,9 C 92 % 1022,0 hPa 0,0 l/m 0,0 km/h (0 Bft) S-SO 157 0 min 0,000 mm 0 W/m 1,7 C 2,9 C 6,4 km/h (2 Bft) 100 %
08.03.2017 01:30 2,8 C 2,8 C 2,9 C 92 % 1022,0 hPa 0,0 l/m 1,6 km/h (1 Bft) S-SO 157 0 min 0,000 mm 0 W/m 1,6 C 2,8 C 6,4 km/h (2 Bft) 100 %
08.03.2017 01:40 2,7 C 2,7 C 2,8 C 91 % 1021,9 hPa 0,0 l/m 0,0 km/h (0 Bft) N 0 0 min 0,000 mm 0 W/m 1,4 C 2,7 C 0,0 km/h (0 Bft) 99 %
08.03.2017 01:50 2,6 C 2,6 C 2,7 C 92 % 1022,0 hPa 0,0 l/m 0,0 km/h (0 Bft) N 0 0 min 0,000 mm 0 W/m 1,4 C 2,6 C 0,0 km/h (0 Bft) 100 %
08.03.2017 02:00 2,5 C 2,5 C 2,6 C 92 % 1022,2 hPa 0,0 l/m 0,0 km/h (0 Bft) S-SO 157 0 min 0,000 mm 0 W/m 1,3 C 2,5 C 1,6 km/h (1 Bft) 100 %
08.03.2017 02:10 2,6 C 2,5 C 2,6 C 91 % 1021,9 hPa 0,0 l/m 1,6 km/h (1 Bft) S-SO 157 0 min 0,000 mm 0 W/m 1,3 C 2,6 C 4,8 km/h (1 Bft) 100 %
08.03.2017 02:20 2,7 C 2,6 C 2,7 C 91 % 1021,9 hPa 0,0 l/m 1,6 km/h (1 Bft) S-SO 157 0 min 0,000 mm 0 W/m 1,4 C 2,7 C 6,4 km/h (2 Bft) 100 %
08.03.2017 02:30 2,7 C 2,7 C 2,7 C 91 % 1021,8 hPa 0,0 l/m 0,0 km/h (0 Bft) S-SO 157 0 min 0,000 mm 0 W/m 1,4 C 2,7 C 1,6 km/h (1 Bft) 91 %
08.03.2017 02:40 2,6 C 2,6 C 2,7 C 92 % 1021,7 hPa 0,0 l/m 0,0 km/h (0 Bft) N 0 0 min 0,000 mm 0 W/m 1,4 C 2,6 C 0,0 km/h (0 Bft) 100 %
08.03.2017 02:50 2,5 C 2,5 C 2,6 C 92 % 1021,6 hPa 0,0 l/m 0,0 km/h (0 Bft) N 0 0 min 0,000 mm 0 W/m 1,3 C 2,5 C 0,0 km/h (0 Bft) 100 %
08.03.2017 03:00 2,3 C 2,3 C 2,5 C 91 % 1021,6 hPa 0,0 l/m 0,0 km/h (0 Bft) N 0 0 min 0,000 mm 0 W/m 1,0 C 2,3 C 0,0 km/h (0 Bft) 100 %
08.03.2017 03:10 2,2 C 2,2 C 2,3 C 92 % 1021,6 hPa 0,0 l/m 0,0 km/h (0 Bft) N 0 0 min 0,000 mm 0 W/m 1,0 C 2,2 C 0,0 km/h (0 Bft) 100 %
08.03.2017 03:20 2,1 C 2,1 C 2,2 C 91 % 1021,7 hPa 0,0 l/m 0,0 km/h (0 Bft) N 0 0 min 0,000 mm 0 W/m 0,8 C 2,1 C 0,0 km/h (0 Bft) 100 %
08.03.2017 03:30 2,0 C 2,0 C 2,1 C 91 % 1021,8 hPa 0,0 l/m 0,0 km/h (0 Bft) N 0 0 min 0,000 mm 0 W/m 0,7 C 2,0 C 0,0 km/h (0 Bft) 100 %
08.03.2017 03:40 2,0 C 1,9 C 2,0 C 91 % 1022,1 hPa 0,0 l/m 0,0 km/h (0 Bft) N 0 0 min 0,000 mm 0 W/m 0,7 C 2,0 C 0,0 km/h (0 Bft) 100 %
08.03.2017 03:50 2,0 C 1,9 C 2,0 C 92 % 1022,2 hPa 0,0 l/m 0,0 km/h (0 Bft) N 0 0 min 0,000 mm 0 W/m 0,8 C 2,0 C 0,0 km/h (0 Bft) 100 %
08.03.2017 04:00 2,0 C 2,0 C 2,1 C 92 % 1022,3 hPa 0,0 l/m 0,0 km/h (0 Bft) N 0 0 min 0,000 mm 0 W/m 0,8 C 2,0 C 0,0 km/h (0 Bft) 89 %
08.03.2017 04:10 1,9 C 1,9 C 2,0 C 92 % 1022,3 hPa 0,0 l/m 0,0 km/h (0 Bft) N 0 0 min 0,000 mm 0 W/m 0,7 C 1,9 C 0,0 km/h (0 Bft) 100 %
08.03.2017 04:20 2,0 C 1,9 C 2,0 C 92 % 1022,5 hPa 0,0 l/m 0,0 km/h (0 Bft) S-SO 157 0 min 0,000 mm 0 W/m 0,8 C 2,0 C 3,2 km/h (1 Bft) 100 %
08.03.2017 04:30 1,8 C 1,8 C 2,0 C 92 % 1022,6 hPa 0,0 l/m 0,0 km/h (0 Bft) S-SO 157 0 min 0,000 mm 0 W/m 0,6 C 1,8 C 3,2 km/h (1 Bft) 100 %
08.03.2017 04:40 1,9 C 1,8 C 1,9 C 92 % 1022,5 hPa 0,0 l/m 3,2 km/h (1 Bft) S-SO 157 0 min 0,000 mm 0 W/m 0,7 C 1,9 C 6,4 km/h (2 Bft) 100 %
08.03.2017 04:50 1,9 C 1,9 C 2,0 C 92 % 1022,4 hPa 0,0 l/m 1,6 km/h (1 Bft) S-SO 157 0 min 0,000 mm 0 W/m 0,7 C 1,9 C 6,4 km/h (2 Bft) 100 %
08.03.2017 05:00 1,9 C 1,8 C 1,9 C 92 % 1022,4 hPa 0,0 l/m 1,6 km/h (1 Bft) S-SO 157 0 min 0,000 mm 0 W/m 0,7 C 1,9 C 4,8 km/h (1 Bft) 100 %
08.03.2017 05:10 1,8 C 1,8 C 1,9 C 92 % 1022,3 hPa 0,0 l/m 1,6 km/h (1 Bft) S-SO 157 0 min 0,000 mm 0 W/m 0,6 C 1,8 C 6,4 km/h (2 Bft) 100 %
08.03.2017 05:20 1,7 C 1,7 C 1,8 C 92 % 1022,6 hPa 0,0 l/m 0,0 km/h (0 Bft) S-SO 157 0 min 0,000 mm 0 W/m 0,5 C 1,7 C 3,2 km/h (1 Bft) 100 %
08.03.2017 05:30 1,4 C 1,4 C 1,7 C 92 % 1022,7 hPa 0,0 l/m 0,0 km/h (0 Bft) N 0 0 min 0,000 mm 0 W/m 0,2 C 1,4 C 0,0 km/h (0 Bft) 90 %
08.03.2017 05:40 1,4 C 1,4 C 1,4 C 92 % 1022,8 hPa 0,0 l/m 0,0 km/h (0 Bft) N 0 0 min 0,000 mm 0 W/m 0,2 C 1,4 C 0,0 km/h (0 Bft) 100 %
08.03.2017 05:50 1,4 C 1,4 C 1,4 C 92 % 1022,8 hPa 0,0 l/m 3,2 km/h (1 Bft) S-SO 157 0 min 0,000 mm 0 W/m 0,2 C 1,4 C 6,4 km/h (2 Bft) 100 %
08.03.2017 06:00 1,4 C 1,4 C 1,5 C 92 % 1022,8 hPa 0,0 l/m 3,2 km/h (1 Bft) SO 135 0 min 0,000 mm 0 W/m 0,2 C 1,4 C 6,4 km/h (2 Bft) 100 %
08.03.2017 06:10 1,4 C 1,4 C 1,4 C 92 % 1022,9 hPa 0,0 l/m 0,0 km/h (0 Bft) N 0 0 min 0,000 mm 0 W/m 0,2 C 1,4 C 0,0 km/h (0 Bft) 100 %
08.03.2017 06:20 1,4 C 1,4 C 1,4 C 92 % 1022,9 hPa 0,0 l/m 1,6 km/h (1 Bft) SO 135 0 min 0,000 mm 0 W/m 0,2 C 1,4 C 4,8 km/h (1 Bft) 100 %
08.03.2017 06:30 1,6 C 1,4 C 1,6 C 92 % 1022,9 hPa 0,0 l/m 3,2 km/h (1 Bft) SO 135 0 min 0,000 mm 0 W/m 0,4 C 1,6 C 8,0 km/h (2 Bft) 100 %
08.03.2017 06:40 1,7 C 1,6 C 1,7 C 92 % 1022,8 hPa 0,0 l/m 1,6 km/h (1 Bft) S-SO 157 0 min 0,000 mm 0 W/m 0,5 C 1,7 C 6,4 km/h (2 Bft) 100 %
08.03.2017 06:50 1,8 C 1,7 C 1,8 C 92 % 1022,7 hPa 0,0 l/m 3,2 km/h (1 Bft) S-SO 157 0 min 0,000 mm 5 W/m 0,6 C 1,8 C 6,4 km/h (2 Bft) 100 %
08.03.2017 07:00 1,9 C 1,8 C 1,9 C 92 % 1022,7 hPa 0,0 l/m 1,6 km/h (1 Bft) SO 135 0 min 0,000 mm 7 W/m 0,7 C 1,9 C 6,4 km/h (2 Bft) 90 %
08.03.2017 07:10 1,9 C 1,9 C 1,9 C 92 % 1022,6 hPa 0,0 l/m 0,0 km/h (0 Bft) SO 135 0 min 0,000 mm 19 W/m 0,7 C 1,9 C 4,8 km/h (1 Bft) 100 %
08.03.2017 07:20 1,7 C 1,7 C 1,9 C 92 % 1022,7 hPa 0,0 l/m 0,0 km/h (0 Bft) N 0 0 min 0,000 mm 21 W/m 0,5 C 1,7 C 0,0 km/h (0 Bft) 100 %
08.03.2017 07:30 1,4 C 1,4 C 1,7 C 92 % 1022,7 hPa 0,0 l/m 0,0 km/h (0 Bft) N 0 0 min 0,000 mm 23 W/m 0,2 C 1,4 C 0,0 km/h (0 Bft) 100 %
08.03.2017 07:40 1,3 C 1,3 C 1,4 C 92 % 1022,7 hPa 0,0 l/m 0,0 km/h (0 Bft) N 0 0 min 0,000 mm 35 W/m 0,1 C 1,3 C 0,0 km/h (0 Bft) 100 %
08.03.2017 07:50 1,1 C 1,1 C 1,2 C 92 % 1022,9 hPa 0,0 l/m 0,0 km/h (0 Bft) S-SO 157 0 min 0,000 mm 49 W/m -0,1 C 1,1 C 1,6 km/h (1 Bft) 100 %
08.03.2017 08:00 1,0 C 1,0 C 1,1 C 92 % 1022,9 hPa 0,0 l/m 0,0 km/h (0 Bft) N 0 0 min 0,000 mm 65 W/m -0,2 C 1,0 C 0,0 km/h (0 Bft) 100 %
08.03.2017 08:10 1,2 C 1,0 C 1,2 C 92 % 1023,0 hPa 0,0 l/m 0,0 km/h (0 Bft) N 0 0 min 0,000 mm 77 W/m 0,0 C 1,2 C 0,0 km/h (0 Bft) 100 %
08.03.2017 08:20 1,3 C 1,2 C 1,3 C 92 % 1023,1 hPa 0,0 l/m 0,0 km/h (0 Bft) N 0 0 min 0,000 mm 79 W/m 0,1 C 1,3 C 0,0 km/h (0 Bft) 100 %
08.03.2017 08:30 1,4 C 1,3 C 1,4 C 92 % 1023,2 hPa 0,0 l/m 0,0 km/h (0 Bft) N 0 0 min 0,000 mm 77 W/m 0,2 C 1,4 C 0,0 km/h (0 Bft) 100 %
08.03.2017 08:40 1,7 C 1,4 C 1,7 C 92 % 1023,2 hPa 0,0 l/m 0,0 km/h (0 Bft) S-SO 157 0 min 0,000 mm 90 W/m 0,5 C 1,7 C 6,4 km/h (2 Bft) 91 %
08.03.2017 08:50 2,1 C 1,7 C 2,1 C 92 % 1023,2 hPa 0,0 l/m 0,0 km/h (0 Bft) S-SO 157 0 min 0,000 mm 107 W/m 0,9 C 2,1 C 4,8 km/h (1 Bft) 100 %
08.03.2017 09:00 2,4 C 2,1 C 2,4 C 92 % 1023,1 hPa 0,0 l/m 0,0 km/h (0 Bft) S-SO 157 0 min 0,025 mm 113 W/m 1,2 C 2,4 C 1,6 km/h (1 Bft) 100 %
08.03.2017 09:10 2,7 C 2,4 C 2,7 C 92 % 1022,9 hPa 0,0 l/m 0,0 km/h (0 Bft) N 0 0 min 0,000 mm 100 W/m 1,5 C 2,7 C 0,0 km/h (0 Bft) 100 %
08.03.2017 09:20 2,9 C 2,7 C 2,9 C 92 % 1022,7 hPa 0,0 l/m 1,6 km/h (1 Bft) S-SO 157 0 min 0,000 mm 109 W/m 1,7 C 2,9 C 6,4 km/h (2 Bft) 100 %
08.03.2017 09:30 3,1 C 2,9 C 3,1 C 92 % 1022,5 hPa 0,0 l/m 3,2 km/h (1 Bft) S-SO 157 0 min 0,000 mm 128 W/m 1,9 C 3,1 C 11,3 km/h (2 Bft) 100 %
08.03.2017 09:40 3,3 C 3,1 C 3,3 C 92 % 1022,5 hPa 0,0 l/m 4,8 km/h (1 Bft) S-SO 157 0 min 0,000 mm 146 W/m 2,1 C 3,3 C 11,3 km/h (2 Bft) 100 %
08.03.2017 09:50 3,7 C 3,3 C 3,7 C 92 % 1022,5 hPa 0,0 l/m 4,8 km/h (1 Bft) S-SO 157 10 min 0,000 mm 156 W/m 2,5 C 3,7 C 9,7 km/h (2 Bft) 100 %
08.03.2017 10:00 3,9 C 3,7 C 3,9 C 92 % 1022,4 hPa 0,0 l/m 4,8 km/h (1 Bft) S 180 10 min 0,051 mm 156 W/m 2,7 C 3,9 C 14,5 km/h (3 Bft) 100 %
08.03.2017 10:10 4,1 C 3,9 C 4,1 C 92 % 1022,5 hPa 0,0 l/m 3,2 km/h (1 Bft) S 180 10 min 0,000 mm 153 W/m 2,9 C 4,1 C 9,7 km/h (2 Bft) 100 %
08.03.2017 10:20 4,3 C 4,1 C 4,3 C 92 % 1022,2 hPa 0,0 l/m 3,2 km/h (1 Bft) S 180 10 min 0,000 mm 162 W/m 3,1 C 4,3 C 8,0 km/h (2 Bft) 100 %
08.03.2017 10:30 4,4 C 4,3 C 4,4 C 91 % 1022,2 hPa 0,0 l/m 4,8 km/h (1 Bft) S 180 10 min 0,000 mm 185 W/m 3,1 C 4,4 C 11,3 km/h (2 Bft) 100 %
08.03.2017 10:40 4,6 C 4,4 C 4,6 C 91 % 1022,0 hPa 0,0 l/m 4,8 km/h (1 Bft) S 180 10 min 0,000 mm 185 W/m 3,3 C 4,6 C 11,3 km/h (2 Bft) 100 %
08.03.2017 10:50 4,8 C 4,6 C 4,8 C 90 % 1022,0 hPa 0,0 l/m 6,4 km/h (2 Bft) S 180 10 min 0,000 mm 195 W/m 3,3 C 4,8 C 20,9 km/h (4 Bft) 100 %
08.03.2017 11:00 5,1 C 4,7 C 5,1 C 90 % 1021,9 hPa 0,0 l/m 8,0 km/h (2 Bft) S 180 10 min 0,076 mm 220 W/m 3,6 C 3,7 C 17,7 km/h (3 Bft) 100 %
08.03.2017 11:10 5,3 C 5,1 C 5,3 C 89 % 1021,7 hPa 0,0 l/m 6,4 km/h (2 Bft) S-SO 157 10 min 0,000 mm 225 W/m 3,6 C 5,3 C 14,5 km/h (3 Bft) 100 %
08.03.2017 11:20 5,6 C 5,3 C 5,6 C 88 % 1021,6 hPa 0,0 l/m 4,8 km/h (1 Bft) S-SO 157 10 min 0,000 mm 221 W/m 3,8 C 5,6 C 12,9 km/h (3 Bft) 100 %
08.03.2017 11:30 5,9 C 5,6 C 5,9 C 88 % 1021,6 hPa 0,0 l/m 4,8 km/h (1 Bft) S-SW 202 10 min 0,000 mm 283 W/m 4,1 C 5,9 C 11,3 km/h (2 Bft) 100 %
08.03.2017 11:40 6,4 C 5,9 C 6,4 C 87 % 1021,5 hPa 0,0 l/m 3,2 km/h (1 Bft) S 180 10 min 0,000 mm 336 W/m 4,4 C 6,4 C 16,1 km/h (3 Bft) 100 %
08.03.2017 11:50 6,8 C 6,4 C 6,8 C 84 % 1021,4 hPa 0,0 l/m 6,4 km/h (2 Bft) S 180 10 min 0,000 mm 339 W/m 4,3 C 6,8 C 17,7 km/h (3 Bft) 100 %
08.03.2017 12:00 6,9 C 6,8 C 6,9 C 83 % 1021,3 hPa 0,0 l/m 9,7 km/h (2 Bft) S-SW 202 10 min 0,102 mm 227 W/m 4,2 C 4,4 C 19,3 km/h (3 Bft) 100 %
08.03.2017 12:10 7,1 C 6,9 C 7,1 C 79 % 1021,2 hPa 0,0 l/m 14,5 km/h (3 Bft) S-SW 202 10 min 0,000 mm 258 W/m 3,7 C 1,9 C 25,7 km/h (4 Bft) 100 %
08.03.2017 12:20 7,2 C 7,1 C 7,2 C 78 % 1021,2 hPa 0,0 l/m 14,5 km/h (3 Bft) S-SW 202 10 min 0,000 mm 267 W/m 3,6 C 2,0 C 24,1 km/h (4 Bft) 100 %
08.03.2017 12:30 7,3 C 7,2 C 7,3 C 78 % 1021,1 hPa 0,0 l/m 14,5 km/h (3 Bft) S-SW 202 10 min 0,000 mm 257 W/m 3,7 C 2,1 C 30,6 km/h (5 Bft) 100 %
08.03.2017 12:40 7,3 C 7,3 C 7,3 C 76 % 1021,1 hPa 0,0 l/m 14,5 km/h (3 Bft) S-SW 202 10 min 0,000 mm 232 W/m 3,4 C 2,1 C 27,4 km/h (4 Bft) 100 %
08.03.2017 12:50 7,3 C 7,3 C 7,3 C 76 % 1021,2 hPa 0,0 l/m 12,9 km/h (3 Bft) S-SW 202 10 min 0,000 mm 178 W/m 3,4 C 2,9 C 27,4 km/h (4 Bft) 100 %
08.03.2017 13:00 7,3 C 7,3 C 7,3 C 76 % 1021,0 hPa 0,0 l/m 12,9 km/h (3 Bft) S-SW 202 10 min 0,127 mm 199 W/m 3,4 C 2,9 C 25,7 km/h (4 Bft) 100 %
08.03.2017 13:10 7,3 C 7,3 C 7,3 C 75 % 1020,9 hPa 0,0 l/m 12,9 km/h (3 Bft) S 180 10 min 0,000 mm 204 W/m 3,2 C 2,9 C 27,4 km/h (4 Bft) 100 %
08.03.2017 13:20 7,4 C 7,3 C 7,4 C 75 % 1020,8 hPa 0,0 l/m 9,7 km/h (2 Bft) S 180 10 min 0,000 mm 192 W/m 3,3 C 4,9 C 25,7 km/h (4 Bft) 100 %
08.03.2017 13:30 7,6 C 7,4 C 7,6 C 74 % 1020,5 hPa 0,0 l/m 14,5 km/h (3 Bft) S-SW 202 10 min 0,000 mm 200 W/m 3,3 C 2,5 C 25,7 km/h (4 Bft) 100 %
08.03.2017 13:40 7,7 C 7,6 C 7,7 C 75 % 1020,4 hPa 0,0 l/m 11,3 km/h (2 Bft) S-SW 202 10 min 0,000 mm 190 W/m 3,6 C 4,3 C 20,9 km/h (4 Bft) 100 %
08.03.2017 13:50 7,8 C 7,7 C 7,8 C 75 % 1020,3 hPa 0,0 l/m 12,9 km/h (3 Bft) S-SW 202 10 min 0,000 mm 186 W/m 3,7 C 3,5 C 24,1 km/h (4 Bft) 100 %
08.03.2017 14:00 7,7 C 7,7 C 7,8 C 73 % 1020,2 hPa 0,0 l/m 12,9 km/h (3 Bft) S-SO 157 0 min 0,102 mm 118 W/m 3,2 C 3,4 C 27,4 km/h (4 Bft) 100 %
08.03.2017 14:10 7,6 C 7,6 C 7,7 C 75 % 1020,0 hPa 0,0 l/m 9,7 km/h (2 Bft) S-SW 202 0 min 0,000 mm 72 W/m 3,5 C 5,1 C 24,1 km/h (4 Bft) 100 %
08.03.2017 14:20 7,4 C 7,4 C 7,6 C 76 % 1020,0 hPa 0,0 l/m 12,9 km/h (3 Bft) S-SW 202 0 min 0,000 mm 67 W/m 3,5 C 3,0 C 27,4 km/h (4 Bft) 100 %
08.03.2017 14:30 7,2 C 7,2 C 7,4 C 78 % 1020,1 hPa 0,2 l/m 14,5 km/h (3 Bft) S-SW 202 0 min 0,000 mm 56 W/m 3,6 C 2,0 C 30,6 km/h (5 Bft) 100 %
08.03.2017 14:40 6,6 C 6,6 C 7,2 C 80 % 1020,1 hPa 0,2 l/m 20,9 km/h (4 Bft) S-SW 202 0 min 0,000 mm 67 W/m 3,4 C -1,4 C 35,4 km/h (5 Bft) 100 %
08.03.2017 14:50 6,2 C 6,2 C 6,6 C 83 % 1019,9 hPa 0,2 l/m 17,7 km/h (3 Bft) S-SW 202 0 min 0,000 mm 56 W/m 3,5 C -0,7 C 27,4 km/h (4 Bft) 100 %
08.03.2017 15:00 5,8 C 5,8 C 6,1 C 85 % 1019,8 hPa 0,4 l/m 12,9 km/h (3 Bft) S-SW 202 0 min 0,051 mm 58 W/m 3,5 C 1,2 C 24,1 km/h (4 Bft) 100 %
08.03.2017 15:10 5,6 C 5,6 C 5,8 C 87 % 1019,7 hPa 0,2 l/m 14,5 km/h (3 Bft) S-SW 202 0 min 0,000 mm 51 W/m 3,6 C 0,1 C 30,6 km/h (5 Bft) 100 %
08.03.2017 15:20 5,3 C 5,3 C 5,5 C 87 % 1019,6 hPa 0,2 l/m 14,5 km/h (3 Bft) S-SW 202 0 min 0,000 mm 47 W/m 3,3 C -0,3 C 35,4 km/h (5 Bft) 100 %
08.03.2017 15:30 5,1 C 5,1 C 5,3 C 88 % 1019,4 hPa 0,2 l/m 11,3 km/h (2 Bft) S 180 0 min 0,000 mm 42 W/m 3,3 C 1,3 C 25,7 km/h (4 Bft) 90 %
08.03.2017 15:40 4,9 C 4,9 C 5,1 C 88 % 1019,2 hPa 0,2 l/m 8,0 km/h (2 Bft) S 180 0 min 0,000 mm 44 W/m 3,1 C 3,5 C 20,9 km/h (4 Bft) 100 %
08.03.2017 15:50 4,8 C 4,8 C 4,9 C 89 % 1019,2 hPa 0,2 l/m 11,3 km/h (2 Bft) S 180 0 min 0,000 mm 30 W/m 3,1 C 1,0 C 22,5 km/h (4 Bft) 100 %
08.03.2017 16:00 4,8 C 4,8 C 4,8 C 90 % 1019,0 hPa 0,2 l/m 6,4 km/h (2 Bft) S 180 0 min 0,025 mm 32 W/m 3,3 C 4,8 C 22,5 km/h (4 Bft) 100 %
08.03.2017 16:10 4,7 C 4,7 C 4,8 C 90 % 1019,0 hPa 0,0 l/m 4,8 km/h (1 Bft) S 180 0 min 0,000 mm 25 W/m 3,2 C 4,7 C 17,7 km/h (3 Bft) 100 %
08.03.2017 16:20 4,6 C 4,6 C 4,7 C 91 % 1018,9 hPa 0,2 l/m 4,8 km/h (1 Bft) S 180 0 min 0,000 mm 19 W/m 3,3 C 4,6 C 14,5 km/h (3 Bft) 100 %
08.03.2017 16:30 4,5 C 4,5 C 4,6 C 91 % 1018,7 hPa 0,2 l/m 4,8 km/h (1 Bft) S-SO 157 0 min 0,000 mm 18 W/m 3,2 C 4,5 C 11,3 km/h (2 Bft) 100 %
08.03.2017 16:40 4,4 C 4,4 C 4,5 C 91 % 1018,5 hPa 0,4 l/m 6,4 km/h (2 Bft) S-SO 157 0 min 0,000 mm 19 W/m 3,1 C 4,4 C 14,5 km/h (3 Bft) 100 %
08.03.2017 16:50 4,4 C 4,4 C 4,4 C 91 % 1018,4 hPa 0,2 l/m 6,4 km/h (2 Bft) S-SO 157 0 min 0,000 mm 19 W/m 3,1 C 4,4 C 16,1 km/h (3 Bft) 100 %
08.03.2017 17:00 4,4 C 4,4 C 4,4 C 91 % 1018,3 hPa 0,2 l/m 8,0 km/h (2 Bft) S-SO 157 0 min 0,000 mm 19 W/m 3,1 C 3,0 C 17,7 km/h (3 Bft) 100 %
08.03.2017 17:10 4,4 C 4,4 C 4,4 C 91 % 1018,2 hPa 0,2 l/m 4,8 km/h (1 Bft) S-SO 157 0 min 0,000 mm 18 W/m 3,1 C 4,4 C 17,7 km/h (3 Bft) 100 %
08.03.2017 17:20 4,4 C 4,4 C 4,4 C 91 % 1018,0 hPa 0,4 l/m 4,8 km/h (1 Bft) S-SO 157 0 min 0,000 mm 18 W/m 3,1 C 4,4 C 9,7 km/h (2 Bft) 100 %
08.03.2017 17:30 4,4 C 4,4 C 4,4 C 91 % 1017,9 hPa 0,2 l/m 4,8 km/h (1 Bft) S-SO 157 0 min 0,000 mm 14 W/m 3,1 C 4,4 C 9,7 km/h (2 Bft) 100 %
08.03.2017 17:40 4,5 C 4,4 C 4,5 C 91 % 1017,7 hPa 0,2 l/m 8,0 km/h (2 Bft) S-SO 157 0 min 0,000 mm 12 W/m 3,2 C 3,1 C 16,1 km/h (3 Bft) 100 %
08.03.2017 17:50 4,4 C 4,4 C 4,5 C 91 % 1017,7 hPa 0,4 l/m 11,3 km/h (2 Bft) S-SO 157 0 min 0,000 mm 7 W/m 3,1 C 0,5 C 20,9 km/h (4 Bft) 99 %
08.03.2017 18:00 4,4 C 4,4 C 4,5 C 91 % 1017,5 hPa 0,0 l/m 23,2 km/h (4 Bft) SO 138 0 min 0,000 mm 0 W/m 3,1 C -5,2 C 24,1 km/h (4 Bft) 67 %
08.03.2017 18:10 4,4 C 4,4 C 4,4 C 91 % 1017,6 hPa 0,4 l/m 12,1 km/h (2 Bft) S-SO 165 0 min 0,000 mm 0 W/m 3,1 C 0,0 C 22,5 km/h (4 Bft) 100 %
08.03.2017 18:20 4,4 C 4,4 C 4,5 C 91 % 1017,4 hPa 0,4 l/m 10,1 km/h (2 Bft) S-SO 167 0 min 0,000 mm 0 W/m 3,1 C 1,3 C 22,5 km/h (4 Bft) 100 %
08.03.2017 18:30 4,4 C 4,4 C 4,4 C 91 % 1017,4 hPa 0,4 l/m 11,1 km/h (2 Bft) S 177 0 min 0,000 mm 0 W/m 3,1 C 0,6 C 20,9 km/h (4 Bft) 100 %
08.03.2017 18:40 4,4 C 4,4 C 4,4 C 91 % 1017,6 hPa 0,4 l/m 7,3 km/h (2 Bft) S-SW 212 0 min 0,000 mm 0 W/m 3,1 C 3,6 C 17,7 km/h (3 Bft) 100 %
08.03.2017 18:50 4,5 C 4,4 C 4,5 C 91 % 1017,3 hPa 0,4 l/m 9,5 km/h (2 Bft) S-SO 167 0 min 0,000 mm 0 W/m 3,2 C 1,9 C 20,9 km/h (4 Bft) 100 %
08.03.2017 19:00 4,6 C 4,5 C 4,6 C 91 % 1017,3 hPa 0,4 l/m 9,6 km/h (2 Bft) S-SO 152 0 min 0,000 mm 0 W/m 3,3 C 1,9 C 20,9 km/h (4 Bft) 100 %
08.03.2017 19:10 4,6 C 4,6 C 4,6 C 91 % 1017,2 hPa 0,4 l/m 10,4 km/h (2 Bft) S-SO 167 0 min 0,000 mm 0 W/m 3,3 C 1,3 C 20,9 km/h (4 Bft) 100 %
08.03.2017 19:20 4,6 C 4,6 C 4,6 C 92 % 1017,4 hPa 0,2 l/m 10,3 km/h (2 Bft) S 175 0 min 0,000 mm 0 W/m 3,4 C 1,4 C 20,9 km/h (4 Bft) 100 %
08.03.2017 19:30 4,6 C 4,6 C 4,6 C 92 % 1017,1 hPa 0,4 l/m 8,7 km/h (2 Bft) S-SW 200 0 min 0,000 mm 0 W/m 3,4 C 2,6 C 19,3 km/h (3 Bft) 100 %
08.03.2017 19:40 4,7 C 4,6 C 4,7 C 92 % 1017,1 hPa 0,2 l/m 7,5 km/h (2 Bft) S 171 0 min 0,000 mm 0 W/m 3,5 C 3,7 C 16,1 km/h (3 Bft) 100 %
08.03.2017 19:50 4,7 C 4,7 C 4,7 C 92 % 1017,0 hPa 0,4 l/m 8,4 km/h (2 Bft) S 185 0 min 0,000 mm 0 W/m 3,5 C 3,0 C 17,7 km/h (3 Bft) 100 %
08.03.2017 20:00 4,8 C 4,7 C 4,8 C 92 % 1017,0 hPa 0,2 l/m 8,5 km/h (2 Bft) S-SW 198 0 min 0,000 mm 0 W/m 3,6 C 3,0 C 17,7 km/h (3 Bft) 100 %
08.03.2017 20:10 4,8 C 4,8 C 4,8 C 91 % 1017,0 hPa 0,2 l/m 6,9 km/h (2 Bft) S 169 0 min 0,000 mm 0 W/m 3,5 C 4,4 C 16,1 km/h (3 Bft) 100 %
08.03.2017 20:20 4,9 C 4,8 C 4,9 C 91 % 1017,0 hPa 0,2 l/m 6,6 km/h (2 Bft) S 181 0 min 0,000 mm 0 W/m 3,6 C 4,7 C 14,5 km/h (3 Bft) 99 %
08.03.2017 20:30 4,9 C 4,9 C 4,9 C 91 % 1017,1 hPa 0,0 l/m 5,3 km/h (1 Bft) S-SW 192 0 min 0,000 mm 0 W/m 3,6 C 4,9 C 11,3 km/h (2 Bft) 100 %
08.03.2017 20:40 4,9 C 4,9 C 5,0 C 91 % 1017,0 hPa 0,0 l/m 4,1 km/h (1 Bft) S 185 0 min 0,000 mm 0 W/m 3,6 C 4,9 C 9,7 km/h (2 Bft) 100 %
08.03.2017 20:50 5,0 C 4,9 C 5,0 C 92 % 1017,1 hPa 0,2 l/m 2,2 km/h (1 Bft) S 190 0 min 0,000 mm 0 W/m 3,8 C 5,0 C 9,7 km/h (2 Bft) 100 %
08.03.2017 21:00 5,1 C 5,0 C 5,1 C 92 % 1017,0 hPa 0,2 l/m 3,0 km/h (1 Bft) S 185 0 min 0,000 mm 0 W/m 3,9 C 5,1 C 8,0 km/h (2 Bft) 100 %
08.03.2017 21:10 5,1 C 5,1 C 5,1 C 92 % 1016,9 hPa 0,4 l/m 1,6 km/h (1 Bft) S 180 0 min 0,000 mm 0 W/m 3,9 C 5,1 C 8,0 km/h (2 Bft) 98 %
08.03.2017 21:20 5,2 C 5,1 C 5,2 C 91 % 1017,0 hPa 0,2 l/m 6,4 km/h (2 Bft) S-SO 157 0 min 0,000 mm 0 W/m 3,9 C 5,2 C 12,9 km/h (3 Bft) 98 %
08.03.2017 21:30 5,3 C 5,2 C 5,3 C 92 % 1017,0 hPa 0,0 l/m 4,8 km/h (1 Bft) S 180 0 min 0,000 mm 0 W/m 4,1 C 5,3 C 12,9 km/h (3 Bft) 98 %
08.03.2017 21:40 5,6 C 5,3 C 5,6 C 91 % 1017,1 hPa 0,2 l/m 6,4 km/h (2 Bft) S-SW 202 0 min 0,000 mm 0 W/m 4,2 C 5,6 C 14,5 km/h (3 Bft) 97 %
08.03.2017 21:50 6,2 C 5,6 C 6,2 C 92 % 1017,1 hPa 0,2 l/m 9,7 km/h (2 Bft) SW 225 0 min 0,000 mm 0 W/m 5,0 C 3,6 C 29,0 km/h (5 Bft) 98 %
08.03.2017 22:00 6,8 C 6,2 C 6,8 C 92 % 1017,0 hPa 0,0 l/m 12,9 km/h (3 Bft) W-SW 247 0 min 0,000 mm 0 W/m 5,6 C 2,3 C 25,7 km/h (4 Bft) 97 %
08.03.2017 22:10 7,1 C 6,8 C 7,1 C 92 % 1016,9 hPa 0,2 l/m 14,5 km/h (3 Bft) W-SW 247 0 min 0,000 mm 0 W/m 5,9 C 1,9 C 32,2 km/h (5 Bft) 98 %
08.03.2017 22:20 7,4 C 7,2 C 7,4 C 91 % 1016,8 hPa 0,2 l/m 16,1 km/h (3 Bft) W-SW 247 0 min 0,000 mm 0 W/m 6,0 C 1,5 C 43,5 km/h (6 Bft) 97 %
08.03.2017 22:30 7,5 C 7,4 C 7,5 C 92 % 1016,8 hPa 0,0 l/m 14,5 km/h (3 Bft) W-SW 247 0 min 0,000 mm 0 W/m 6,3 C 2,3 C 40,2 km/h (6 Bft) 98 %
08.03.2017 22:40 7,6 C 7,5 C 7,6 C 91 % 1016,7 hPa 0,2 l/m 14,5 km/h (3 Bft) W-SW 247 0 min 0,000 mm 0 W/m 6,2 C 2,5 C 38,6 km/h (5 Bft) 98 %
08.03.2017 22:50 7,7 C 7,6 C 7,8 C 91 % 1016,7 hPa 0,2 l/m 12,9 km/h (3 Bft) W-SW 247 0 min 0,000 mm 0 W/m 6,3 C 3,4 C 32,2 km/h (5 Bft) 97 %
08.03.2017 23:00 7,9 C 7,7 C 7,9 C 91 % 1016,8 hPa 0,2 l/m 16,1 km/h (3 Bft) W-SW 247 0 min 0,025 mm 0 W/m 6,5 C 2,1 C 30,6 km/h (5 Bft) 98 %
08.03.2017 23:10 7,9 C 7,9 C 7,9 C 91 % 1016,8 hPa 0,2 l/m 14,5 km/h (3 Bft) W-SW 247 0 min 0,000 mm 0 W/m 6,5 C 2,8 C 33,8 km/h (5 Bft) 97 %
08.03.2017 23:20 8,1 C 7,9 C 8,1 C 91 % 1016,8 hPa 0,0 l/m 16,1 km/h (3 Bft) W-SW 247 0 min 0,000 mm 0 W/m 6,7 C 2,3 C 35,4 km/h (5 Bft) 98 %
08.03.2017 23:30 8,1 C 8,1 C 8,1 C 91 % 1016,8 hPa 0,2 l/m 9,7 km/h (2 Bft) W-SW 247 0 min 0,000 mm 0 W/m 6,7 C 5,7 C 27,4 km/h (4 Bft) 98 %
08.03.2017 23:40 8,1 C 8,1 C 8,2 C 91 % 1016,9 hPa 0,2 l/m 11,3 km/h (2 Bft) W-SW 247 0 min 0,000 mm 0 W/m 6,7 C 4,7 C 32,2 km/h (5 Bft) 98 %
08.03.2017 23:50 8,2 C 8,1 C 8,2 C 91 % 1016,9 hPa 0,2 l/m 9,7 km/h (2 Bft) W 270 0 min 0,000 mm 0 W/m 6,8 C 5,8 C 22,5 km/h (4 Bft) 89 %
_ Min-Zeit 08:00 08:00 08:00 14:00 22:40 - 00:00 - - - - - 08:00 18:00 00:00 18:00
Minimum _ 1,0 C 1,0 C 1,1 C 73 % 1016,7 hPa - 0,0 km/h (0 Bft) - - - - - -0,2 C -5,2 C 0,0 km/h (0 Bft) 67 %
_ Max-Zeit 23:40 23:30 23:40 00:00 08:30 15:00 18:00 - - 09:50 13:00 11:50 23:50 11:50 22:20 00:20
Maximum _ 8,2 C 8,1 C 8,2 C 92 % 1023,2 hPa 0,4 l/m 23,2 km/h
SO (4 Bft)
- - 10 min 0,127 mm 339 W/m 6,8 C 6,8 C 43,5 km/h
W (6 Bft)
100 %
Durchschnitt _ 4,3 C 4,2 C 4,3 C 89 % 1020,3 hPa #12,6 l/m 5,9 km/h (2 Bft) S-SO - #4:10 h #0,584 mm 113 W/m 2,7 C 2,8 C 13,6 km/h (3 Bft) 99 %
PRIVATE WETTERSTATION BILLIGHEIM-ALLFELD - www.neckar-odenwald-wetter.de - Holger Sonntag